Location: Unspecified
(0.0000°N, 0.0000°E)
Time: 10:18:22
(UTC+02:00)

Tiangong 2 - Visible Passes

Search period start: 24 September 2018 00:00
Search period end: 04 October 2018 00:00
Orbit: 384 x 394 km, 42.8° (Epoch: 23 September)

Date Brightness Start Highest point End Pass type
(mag) Time Alt. Az. Time Alt. Az. Time Alt. Az.
24 Sep 2.0 21:14:07 10° WNW 21:17:09 44° SW 21:17:21 43° SSW visible
25 Sep 1.2 20:15:58 10° NW 20:19:06 58° NE 20:22:13 10° SE visible
26 Sep 4.0 20:55:44 10° W 20:57:42 15° SW 20:59:39 10° S visible
27 Sep 4.1 06:50:13 10° SSE 06:51:57 14° SE 06:53:41 10° ESE visible
29 Sep 2.4 06:31:20 27° S 06:32:28 38° SE 06:35:28 10° ENE visible
30 Sep 2.6 07:09:29 15° W 07:11:02 21° NW 07:13:32 10° N visible
01 Oct 3.5 06:15:09 17° NNE 06:15:09 17° NNE 06:16:03 10° NE visible
